Showing default

NUSAT-44 MARIA MITCHELL, 59122

Orbit data source: Space-Track

NUSAT-44 MARIA MITCHELL, 59122 is a payload satellite owned by URUGUS S.A. (AR) in SSO that was launched on Mon, 04 Mar 2024 UTC via an FALCON 9 launch vehicle from the Air Force Western Test Range (AFWTR). Payload-class satellites include a variety of spacecraft equipped with specific instruments for various scientific and technological missions. These include communications satellites like Starlink; space stations such as the ISS; scientific satellites like the Hubble; Earth observation satellites from companies like Planet Labs, Umbra, and HawkEye 360; GPS; miniature CubeSats for education and research; and military/defense satellites.

Loading next visibility...
Identifier
59122, 2024-043AA
Orbit
SSO
Country
Flag of ARAR / ARGN
Related business
Manufacturer
URUGUS S.A.
Mission
Operational Commercial Imaging
Bus & Motor
NEWSAT V, Unknown motor
Mass
41.5 kg wet, 38.5 kg dry
Launch date (UTC)
2024-03-04 (2 years ago)
Launch vehicle
FALCON 9
Launch site
Air Force Western Test Range (AFWTR)
Object type
Payload
Rocket body
Debris
Shape & HBR
Box, 1.0 m
Radar Cross Section
0.542 m², Medium (>0.1 m² and < 1m²)

Expand to show TLE details & history
Last TLE update: 6 hours ago

TLE from 6 hours ago
0 NUSAT-44 MARIA MITCHELL
1 59122U 24043AA  26169.97603343  .00008043  00000-0  27994-3 0  9990
2 59122  97.5459 310.2660 0006175 219.4132 140.6659 15.29950344127541
Epoch: 2026-06-18T23:25Z
TLE epoch observation values (Epoch: 2026-06-18T23:25:29.288Z)
Latitude
-0.00007°
Longitude
51.68233°
Altitude
482.336 km
Speed
7.622 km/s
True Right ascension
20h 41m 03s
True Declination
0° 00' 00"
Sunlit
Object was in full shadow at epoch
Visualization orbit readout
Latitude
Unknown
Longitude
Unknown
Altitude
Unknown
Speed
Unknown
Apparent Right ascension
Unknown
Apparent Declination
Unknown
Sunlit
N/A
Visualization observer readout
Local Sidereal Time
15:47:02
Azimuth
Unknown
Elevation
Unknown
Doppler factor
Unknown
Orbital elements
Apogee altitude
477.15 km
Perigee altitude
468.689 km
Semi-major axis
6,851.056 km
Eccentricity
0.00062
Inclination
97.5459°
RAAN
310.266°
Arg. of periapsis
219.4132°
True anomaly
140.71072°
Mean anomaly
140.6659°
Eccentric anomaly
140.68831°
Mean motion
3.82743 °/min
Orbital period
94.06 mins
BSTAR
0.00027994
Loading maneuver chart data...
Computing Atmospheric mass density...
Loading historical data...
Loading historical data...
Loading historical data...
Loading historical data...
Loading historical data...
Loading historical data...
Loading historical data...

Documentation

Showing up to 5 results
|